Regional Weather Roundup
Issued by NWS

Home | Current Version | Previous Version | Graphics & Text | Print | Product List | Glossary On
Versions: 1 2 3 4 5 6 7 8 9 10 11 12 13 14 15 16 17 18 19 20 21 22 23 24 25 26 27 28 29 30 31 32 33 34 35 36 37 38 39 40 41 42 43 44 45 46 47 48 49 50
000
ASUS45 KABQ 192210
RWRNM
NEW MEXICO REGIONAL WEATHER ROUNDUP
NATIONAL WEATHER SERVICE ALBUQUERQUE NM
400 PM MDT TUE SEP 19 2017

NOTE: "FAIR" MEANS FEW OR NO CLOUDS BELOW 12,000 FEET AGL WITH NO
       SIGNIFICANT WEATHER OR OBSTRUCTIONS TO VISION.

      THIS PRODUCT IS RELEASED AS TWO VERSIONS.  ONE VERSION NEAR
      THE TOP OF THE HOUR CONTAINING PRELIMINARY DATA FROM ALBUQUERQUE
      AND OTHER STATIONS.  A FINAL VERSION WITH ADDITIONAL DATA IS
      ISSUED ABOUT 10 MINUTES AFTER THE HOUR.

NMZ501-503-504-510>518-192300-
NORTHWEST PLATEAU/NORTHCENTRAL MOUNTAINS

CITY           SKY/WX    TMP DP  RH WIND       PRES   REMARKS
FARMINGTON     FAIR      82  17   9 W14G24    29.88F
LOS ALAMOS     FAIR      77  12   8 SW15G25   30.03F
SANTA FE       FAIR      82  11   7 W17G33    29.96F
TAOS           FAIR      76  14   9 W28G40    29.99F
ANGEL FIRE     FAIR      67  19  15 SW13G35   30.06F

$$
NMZ402-403-502-505>509-192300-
WESTCENTRAL MOUNTAINS/SOUTHWEST MOUNTAINS

CITY           SKY/WX    TMP DP  RH WIND       PRES   REMARKS
GALLUP         NOT AVBL
GRANTS         FAIR      80  18   9 W20G32    30.04S
SILVER CITY    FAIR      84  45  25 W18G31    30.03F

$$
NMZ407-409-411-412-192300-
SOUTHERN DESERTS

CITY           SKY/WX    TMP DP  RH WIND       PRES   REMARKS
DEMING         FAIR      89  49  25 W15G31    29.94F
LAS CRUCES     FAIR      90  44  20 W20G29    29.95F
HOLLOMAN AFB   FAIR      92  42  17 SW17      29.91F
ALAMOGORDO     FAIR      90  41  18 W14G22    29.91F
T OR C         FAIR      90  36  14 W14G30    29.92F

$$
NMZ519>523-192300-
CENTRAL VALLEYS/CENTRAL HIGHLANDS

CITY           SKY/WX    TMP DP  RH WIND       PRES   REMARKS
ALBUQUERQUE    FAIR      86  15   7 W18G31    29.92F
DOUBLE EAGLE   MOSUNNY   84  18   8 SW29      29.96F
MORIARTY ARPT  FAIR      86  22   9 W16G22    29.98F
CLINES CORNERS FAIR      79  19  10 W29G40    30.02F
BELEN          FAIR      90  22   8 W18G32    29.91F
SOCORRO        FAIR      92  29  10 W15       29.89F

$$
NMZ524>526-539-540-192300-
SOUTHCENTRAL MOUNTAINS

CITY           SKY/WX    TMP DP  RH WIND       PRES   REMARKS
RUIDOSO        FAIR      75  39  27 W18G30    30.08F

$$
NMZ527>531-192300-
NORTHEAST HIGHLANDS/NORTHEAST PLAINS

CITY           SKY/WX    TMP DP  RH WIND       PRES   REMARKS
LAS VEGAS      FAIR      75  26  16 W14G20    29.95F
RATON          FAIR      76  28  17 SW23      29.85F
CLAYTON        FAIR      85  24  11 SW20G26   29.77F

$$
NMZ532>537-192300-
EASTCENTRAL PLAINS

CITY           SKY/WX    TMP DP  RH WIND       PRES   REMARKS
SANTA ROSA     FAIR      89  32  13 W23G36    29.84F
TUCUMCARI      FAIR      94  30  10 W24G38    29.75F
CANNON AFB     FAIR      91  39  16 SW23G31   29.84F
CLOVIS AIRPORT FAIR      90  41  18 SW20      29.84F

$$
NMZ028-029-538-192300-
SOUTHEAST PLAINS

CITY           SKY/WX    TMP DP  RH WIND       PRES   REMARKS
ROSWELL        FAIR      97  41  14 W12G21    29.81F
ARTESIA        FAIR      95  45  17 SW22G32   29.82F
CARLSBAD       FAIR      97  46  17 SW17G30   29.80F
HOBBS          MOSUNNY   91  45  19 SW16G26   29.83F


$$




USA.gov is the U.S. government's official web portal to all federal, state and local government web resources and services.